EHI
56 57 57 58 60 59 55 54 55 52 48 46 42 37 33 31 31 30 26 20 16 14 13 13 11 10 8 5 5 4 4 3 3 3 4 3 2 3 6 7 6 3 1
56 57 57 59 60 59 55 53 52 49 46 42 40 37 33 29 28 27 23 18 15 13 13 12 10 9 8 6 5 5 4 3 3 3 4 4 4 4 6 6 5 2 1
56 56 57 59 59 56 52 49 46 44 42 38 34 33 31 27 24 23 20 17 14 12 11 10 9 9 9 8 6 5 5 4 4 4 4 5 4 4 5 5 3 2 1
58 56 56 57 55 49 46 44 41 39 38 35 30 26 25 23 21 19 17 15 15 13 11 9 8 7 7 7 6 5 5 6 6 4 4 4 4 4 4 4 3 3 2
59 57 55 54 50 44 41 39 37 35 34 32 28 23 20 18 15 15 14 13 14 14 12 9 7 6 5 4 4 4 5 7 7 5 4 5 4 4 4 4 3 3 2
56 54 51 49 44 38 36 35 34 33 32 31 27 23 19 15 10 8 9 11 13 14 12 10 8 6 4 3 3 2 4 6 6 5 5 5 5 5 4 3 3 3 2
52 49 44 40 36 32 31 32 33 32 32 31 27 23 19 14 8 4 5 9 12 12 11 9 7 4 3 3 1 1 1 3 4 5 5 4 4 4 3 2 2 2 1
48 45 40 35 32 30 29 30 29 29 30 29 26 23 19 15 9 4 3 7 11 11 9 7 5 4 4 3 1 1 1 1 1 3 3 2 3 4 3 2 2 2 1
46 43 39 34 32 30 28 27 26 26 26 25 24 23 21 16 10 5 5 8 11 11 9 5 4 5 4 3 3 3 2 0 0 1 1 2 3 3 3 3 2 2 1
43 40 36 33 30 28 25 24 24 23 21 20 20 22 22 17 11 5 4 8 11 10 8 5 3 3 2 2 4 4 3 2 2 1 2 3 3 3 2 3 3 3 2
40 37 33 29 26 24 22 20 20 19 17 15 16 19 21 18 11 4 3 5 8 8 7 5 4 2 1 1 1 2 2 3 4 4 3 3 3 3 3 3 3 3 3
38 35 30 24 21 21 19 16 15 15 15 14 15 18 20 17 12 5 2 2 4 5 6 5 4 2 0 0 0 0 1 2 3 4 3 3 4 5 5 5 4 3 2
34 31 26 19 16 17 17 14 12 12 12 12 14 17 19 17 12 6 1 0 1 2 3 3 2 1 0 0 0 0 0 1 3 3 3 4 5 6 6 6 4 2 1
28 26 21 17 16 17 15 12 10 9 7 8 11 14 16 14 10 6 2 0 0 0 1 1 0 0 0 0 0 1 1 2 3 3 3 3 3 4 4 4 3 1 0
25 22 18 17 18 18 15 10 7 5 4 6 7 9 10 9 7 5 2 0 0 0 0 1 1 1 0 0 0 1 2 3 3 2 1 1 1 2 2 2 1 1 0
23 20 17 17 19 19 15 10 5 3 3 3 4 4 4 4 3 3 1 0 0 0 0 1 2 1 0 0 0 1 2 3 3 1 0 0 0 1 1 1 2 1 1
19 18 16 16 16 16 15 11 4 2 1 2 1 1 1 1 1 1 0 0 0 0 0 1 2 1 1 1 1 0 1 2 2 1 0 0 0 0 0 1 1 1 0
16 16 16 14 11 10 11 9 5 3 3 2 1 0 0 0 0 0 0 0 0 0 0 1 1 1 2 2 1 0 0 1 1 1 1 2 2 1 0 0 0 0 0
14 14 14 13 9 6 5 5 5 5 6 4 2 0 0 0 0 0 0 0 0 0 0 1 0 1 2 2 2 1 1 0 0 1 3 4 3 2 0 0 0 0 0
14 12 11 9 7 5 4 4 5 6 6 5 3 1 0 0 0 0 0 0 0 0 0 0 0 0 1 2 2 3 2 1 0 1 3 4 4 2 1 0 0 0 0
11 10 7 5 4 4 5 6 7 7 6 5 4 1 0 0 0 0 0 0 0 0 0 1 1 1 2 3 4 5 3 1 0 0 1 3 3 2 1 0 0 0 0
8 7 6 3 2 3 5 7 8 8 7 6 5 2 0 0 0 0 0 1 2 1 2 3 3 3 3 4 5 5 4 2 1 0 1 2 3 2 1 0 0 0 0
6 6 6 4 2 2 3 5 6 7 7 8 7 4 2 1 0 0 1 3 4 4 3 4 4 3 3 4 5 4 3 2 1 0 1 2 3 2 1 0 0 0 0
6 5 5 4 3 3 3 3 4 5 6 8 8 6 5 4 2 1 2 3 4 3 2 2 3 3 2 3 3 2 1 1 0 0 1 3 3 2 1 0 0 0 0
4 4 5 5 5 5 4 3 3 3 4 6 7 7 7 5 3 2 2 2 2 1 1 1 2 2 1 1 1 0 0 0 0 1 2 3 3 2 1 0 0 0 0
3 4 6 6 6 6 5 4 3 3 4 4 5 7 6 4 2 1 1 1 1 0 0 0 1 1 0 0 0 0 0 0 0 1 2 3 3 2 1 0 0 0 0
Wind_Speed
5 5 3 3 3 2 1 1 1 1 2 2 2 2 2 2 1 1 1 1 2 2 2 2 2 2 2 2 2 2 2 2 3 1 2 2 3 3 3 3 5 5 5
5 4 4 3 3 3 2 2 1 2 2 3 2 1 1 2 2 1 1 2 2 2 2 2 3 2 2 2 2 2 2 2 3 3 2 2 2 2 2 2 4 4 5
6 5 4 4 3 3 2 2 2 2 2 2 2 2 2 2 2 2 2 2 2 2 2 2 2 3 3 2 2 2 2 2 3 3 2 2 1 1 1 2 4 3 5
6 5 4 4 3 3 3 2 2 3 3 2 2 2 2 2 2 2 2 2 2 3 3 4 4 3 3 2 2 3 2 2 2 2 2 2 1 0 1 1 2 1 2
6 5 5 5 4 3 3 3 3 3 3 2 2 2 2 2 3 3 2 3 3 3 3 3 4 6 7 4 3 2 2 2 2 2 2 2 1 1 0 0 1 1 1
5 5 5 5 4 3 3 3 3 3 3 3 3 3 3 3 5 5 4 3 3 3 3 2 3 4 5 6 6 6 4 2 1 1 2 2 1 1 1 0 1 1 0
5 4 4 4 4 4 3 4 3 3 3 3 3 4 4 5 6 6 5 2 3 3 3 2 2 3 3 2 4 5 5 6 4 1 2 2 2 1 0 1 0 0 1
5 4 4 4 4 4 4 3 3 3 3 3 3 3 4 5 6 5 4 2 2 2 2 2 2 3 4 3 3 3 4 4 3 3 2 1 1 1 1 1 1 1 1
5 4 3 3 4 4 4 3 3 3 3 3 3 3 3 3 4 4 3 1 2 2 2 3 2 3 5 4 3 3 2 2 3 4 3 2 1 0 0 0 0 1 1
5 4 3 3 3 4 3 3 2 2 2 3 3 3 3 3 3 4 3 1 1 2 2 2 4 3 3 4 2 2 1 1 1 2 1 1 1 1 0 0 0 0 0
5 4 3 3 3 4 3 2 2 2 2 2 3 3 3 3 3 3 4 1 1 1 1 1 2 3 3 3 2 1 0 1 0 1 1 1 1 1 0 0 0 0 1
4 4 4 3 3 4 3 2 2 2 2 2 2 3 3 3 3 2 3 3 2 1 1 1 1 1 1 1 1 1 2 1 0 0 1 1 1 0 0 0 0 1 1
4 4 4 4 3 3 3 2 1 1 2 2 2 2 3 3 3 3 3 2 2 1 1 2 1 0 1 1 1 1 0 0 0 0 0 0 0 0 0 0 1 1 1
5 4 3 4 3 3 2 2 1 1 0 0 1 1 2 3 2 1 1 1 1 1 1 1 1 0 0 1 1 0 0 0 0 0 1 0 0 0 0 0 0 0 1
4 4 3 3 4 3 3 2 2 3 2 1 1 2 2 2 1 1 0 0 1 1 0 1 1 1 1 1 1 0 0 0 0 0 1 1 1 1 1 1 1 0 0
4 3 2 3 3 3 4 4 6 4 5 5 4 3 3 4 4 3 3 2 2 1 1 1 1 1 1 1 1 1 1 0 0 0 0 1 1 1 1 1 1 1 1
2 2 2 2 2 2 3 4 4 3 4 4 4 4 4 5 4 3 2 1 1 1 0 1 1 1 0 0 0 1 0 0 0 0 0 0 1 1 1 1 1 1 1
2 3 2 2 2 2 2 2 3 4 3 2 2 3 4 4 3 2 1 1 1 1 1 1 0 0 0 0 1 1 0 1 0 0 0 1 1 1 1 1 1 1 1
2 1 2 2 2 2 2 2 2 3 3 4 4 3 3 3 3 3 3 2 1 1 1 1 0 0 0 0 0 1 1 1 0 0 0 1 1 1 1 1 1 2 2
2 3 2 2 2 2 2 2 2 2 2 3 3 3 3 3 3 3 3 2 2 1 1 1 1 1 0 0 0 1 1 0 1 1 1 1 2 2 2 2 2 2 2
2 3 4 3 2 1 1 2 2 2 2 2 2 2 3 3 2 2 2 2 2 1 1 0 0 1 1 0 0 1 1 1 1 1 1 1 2 2 2 2 2 2 2
1 1 2 2 1 1 2 2 2 2 2 3 3 3 4 3 2 2 2 2 1 1 1 1 1 0 1 0 0 0 0 1 1 1 2 2 2 2 3 2 2 2 2
2 2 2 2 2 2 2 2 2 2 2 1 2 2 3 3 2 1 1 1 1 1 1 1 1 1 1 0 1 1 1 1 1 1 2 2 3 3 3 3 3 3 2
2 2 2 2 2 2 2 1 2 2 2 2 2 2 3 3 3 2 2 2 2 1 1 1 1 1 2 1 1 2 1 1 1 1 2 3 3 3 3 3 3 4 3
2 2 2 2 2 2 2 2 2 2 2 2 2 2 2 2 2 2 2 3 3 3 3 3 2 2 2 2 2 2 2 1 0 1 2 2 3 3 3 4 3 4 4
2 2 3 2 2 2 2 3 3 3 3 3 2 2 3 3 3 3 3 3 3 3 3 2 2 3 3 3 3 4 3 1 1 1 2 2 3 3 3 3 4 4 4
Wind_Direction
172 173 166 159 162 161 166 112 94 87 88 72 66 63 69 63 53 57 57 47 59 45 31 35 16 15 16 12 28 64 82 106 124 116 109 109 97 101 120 133 131 127 118
157 154 150 135 129 133 131 110 94 95 93 89 86 77 72 67 55 52 43 51 60 62 41 36 22 25 31 27 25 45 84 109 124 125 120 112 94 105 130 139 129 128 128
144 142 139 131 124 120 114 108 105 98 92 87 78 70 56 58 60 51 45 47 55 58 53 48 37 38 35 39 41 47 58 80 109 119 119 103 95 97 114 117 116 123 130
126 127 124 123 124 122 119 116 109 105 99 90 81 76 67 48 47 50 60 58 65 64 61 53 41 43 37 39 57 53 60 64 91 111 115 119 108 77 86 111 114 128 120
118 120 117 109 106 110 116 111 104 101 104 101 98 85 75 68 40 29 58 83 75 72 70 69 62 60 58 52 60 61 70 72 90 103 105 94 85 77 50 223 121 135 124
113 117 114 116 117 113 112 108 108 101 97 98 93 78 69 63 42 43 43 72 78 69 63 68 83 70 70 74 71 67 68 87 78 88 103 114 109 75 7 352 118 142 205
120 118 118 125 127 122 118 112 110 110 112 105 99 93 84 59 48 43 33 54 70 61 49 40 42 60 60 79 92 84 64 59 66 92 106 117 134 137 182 294 320 245 176
119 117 115 123 122 117 112 104 102 103 109 115 108 101 93 69 52 48 29 76 80 77 64 50 43 47 36 32 85 82 72 51 51 67 80 83 112 167 213 217 194 132 115
117 114 121 122 120 118 115 109 108 115 115 120 121 114 101 80 45 40 21 100 91 80 73 57 62 61 32 37 72 81 75 67 74 76 78 100 103 15 302 27 200 154 189
120 120 119 110 112 113 115 120 119 121 122 118 116 116 114 102 57 33 9 55 100 91 78 73 60 63 43 41 67 91 85 1 49 79 82 103 141 101 54 187 277 257 217
113 115 109 107 115 116 116 118 122 124 125 128 128 125 119 109 95 49 29 7 27 63 80 72 55 55 57 50 47 55 305 262 241 154 143 121 93 77 86 95 316 237 261
111 114 111 110 117 118 122 129 138 151 155 154 151 138 123 115 101 79 58 35 12 46 49 70 91 88 95 58 37 4 353 353 285 147 114 105 121 140 278 281 271 273 232
117 116 117 114 105 115 120 122 136 170 187 175 167 150 126 111 95 77 69 50 39 48 62 89 111 233 179 163 170 247 331 320 301 68 204 299 348 58 79 61 357 320 288
128 128 129 130 120 106 103 110 104 81 72 68 111 116 111 99 84 73 87 105 89 99 109 141 178 222 245 3 37 19 208 294 276 274 309 281 235 48 12 12 264 279 353
133 137 141 138 132 118 101 68 87 72 73 77 62 64 87 102 99 125 130 51 343 343 237 177 164 161 179 190 186 185 212 299 290 312 20 15 16 34 352 342 319 301 302
150 151 160 159 150 155 144 115 62 80 96 88 86 96 92 106 121 101 70 42 17 16 110 170 169 185 196 178 190 206 195 13 316 10 33 14 6 6 359 14 7 9 1
152 151 162 154 158 175 161 150 138 98 81 77 91 104 115 128 121 112 98 48 345 41 205 233 208 190 194 237 272 253 214 163 272 279 228 53 338 356 14 4 4 347 329
176 168 176 170 179 187 169 171 168 164 162 149 128 139 144 148 149 154 156 123 156 188 226 247 266 265 261 340 351 335 276 131 164 228 345 314 290 288 299 299 281 288 300
188 182 178 180 197 194 185 187 184 172 165 152 150 154 181 183 186 193 181 220 219 192 193 193 204 281 283 186 249 276 247 161 123 304 323 319 309 296 298 307 322 338 320
185 186 207 213 212 203 202 197 186 178 174 159 159 160 172 186 188 185 196 218 218 210 205 177 163 176 191 206 240 283 285 94 59 30 8 330 316 309 305 303 317 323 305
188 175 195 217 226 212 218 219 203 191 182 167 155 149 168 213 211 196 186 194 206 215 199 217 177 170 161 147 18 327 347 42 51 17 351 318 307 305 297 292 293 294 299
195 182 195 197 209 239 241 220 207 205 199 180 171 168 177 214 220 202 192 189 192 191 175 178 195 146 122 144 162 311 14 34 31 352 318 305 298 298 299 296 295 293 294
211 196 202 195 183 195 240 238 210 207 205 170 165 172 180 208 199 186 195 197 182 169 169 182 176 132 108 131 107 90 48 33 0 345 322 308 303 296 294 302 306 307 304
228 215 217 214 200 212 222 225 232 228 206 195 190 190 190 192 198 195 197 187 201 194 181 193 188 166 159 165 132 108 78 39 0 326 311 294 296 295 298 304 302 298 297
241 222 224 227 223 226 218 223 230 242 232 207 204 202 196 189 195 194 193 194 201 201 202 202 195 171 141 120 104 97 103 93 63 315 282 278 288 296 302 303 302 300 298
238 240 236 230 227 222 215 220 227 231 233 223 213 210 202 200 202 204 205 204 210 205 197 190 156 147 144 140 127 128 138 140 151 230 264 269 276 280 295 295 298 298 301